Погода в Орехово

Россия / Приморский край     45°32′41″N   134°22′14″E
темп.,
°C
ветер,
м/с
пор.,
м/с
влажн.,
%
обл.,
%
осадки,
мм/ч
давл.,
гПа
погр.,
м
19 апреля, пн
пн1901:00+6сз28666 0.0 1004193
04:00+4з227768 0.0 100416
07:00+4зюз227893 0.0 100344
10:00+11зсз365018 0.0 1002927
13:00+15сз6103311 0.0 10002183
16:00+16зсз610244 0.0 9992486
19:00+15зсз510315 0.0 10001078
22:00+9юз234818 0.0 100157
20 апреля, вт
вт2001:00+7зсз51157100 0.0 1004881
04:00+3сз712380 0.1 10101186
07:00+1зсз614350 0.0 10121328
10:00+4зсз817260 0.0 10121978
13:00+8зсз923192 0.0 10123230
16:00+10сз923160 0.0 10113356
19:00+7ссз617200 0.0 10142230
22:00+3з26290 0.0 1018111
21 апреля, ср
ср2101:00+1зюз22370 0.0 102031
04:000юз22390 0.0 102019
07:00+1ююз11380 0.0 102121
10:00+12зсз26210 0.0 1021784
13:00+17зсз35190 0.0 10201545
16:00+19сз35190 0.0 10191654
19:00+16ссз11310 0.0 101911
22:00+10ю11410 0.0 102110
22 апреля, чт
чт2201:00+8ю21484 0.0 102211
04:00+7ююв225213 0.0 102212
07:00+7ююв215197 0.0 102227
10:00+17ю2329100 0.0 1022350
13:00+22ююз2422100 0.0 10211339
16:00+22ююз3423100 0.0 10201711
19:00+18ю2237100 0.0 102023
22:00+13зюз1156100 0.0 102315
23 апреля, пт
пт2301:00+11юз1161100 0.0 102413
04:00+10з1163100 0.0 102511
07:00+10зюз1161100 0.0 102637
10:00+15юз1247100 0.0 1025464
13:00+19зсз3436100 0.0 10241323
16:00+19зсз3440100 0.0 10231630
19:00+16з2549100 0.0 1023253
22:00+12зюз2462100 0.0 1024115